Orangeburg, SC

12:46 PM EDT on August 23, 2017 (GMT -0400)
Orangeburg Municipal

Weather History for KOGB - June, 2013

Change the Weather History Date:

Thursday, June 27, 2013

  Actual Average Record
Temperature  
Mean Temperature 83 °F 80 °F  
Max Temperature 93 °F 91 °F 101 °F (1954)
Min Temperature 72 °F 69 °F 61 °F (1979)
Degree Days  
Heating Degree Days 0 0  
Month to date heating degree days 0 0  
Since 1 June heating degree days 0 0  
Since 1 July heating degree days 2181 2332  
Cooling Degree Days 18 15  
Month to date cooling degree days 376 352  
Year to date cooling degree days 638 655  
Since 1 June cooling degree days 376 352  
Growing Degree Days 31 (Base 50)    
Moisture  
Dew Point 72 °F    
Average Humidity 75    
Maximum Humidity 100    
Minimum Humidity 49    
Precipitation  
Precipitation 0.00 in 0.16 in 3.67 in (1997)
Month to date precipitation 6.33 4.64  
Year to date precipitation 23.71 22.26  
Sea Level Pressure  
Sea Level Pressure 29.89 in    
Wind  
Wind Speed 9 mph (SW)    
Max Wind Speed 18 mph    
Max Gust Speed 23 mph    
Visibility 9 miles    
Events      
T = Trace of Precipitation, MM = Missing Value Source: NWS Daily Summary

Daily Weather History Graph

Daily Weather History Graph

Search for Another Location

Airport or City:

Trip Planner

Search our weather history database for the weather conditions in past years. The results will help you decide how hot, cold, wet, or windy it might be!

Date:

Astronomy

Jun. 27, 2013 Rise Set
Actual Time 6:15 AM EDT 8:37 PM EDT
Civil Twilight 5:46 AM EDT 9:06 PM EDT
Nautical Twilight 5:11 AM EDT 9:41 PM EDT
Astronomical Twilight 4:32 AM EDT 10:20 PM EDT
Moon 11:50 PM EDT (6/27) 11:00 AM EDT (6/27)
Length of Visible Light 15h 19m
Length of Day
14h 21m
Waning Gibbous, 76% of the Moon is Illuminated
Jun 27
Waning Gibbous
Jun 30
Last Quarter
Jul 8
New
Jul 15
First Quarter
Jul 22
Full

Hourly Weather History & Observations

Time (EDT) Temp. Heat Index Dew Point Humidity Pressure Visibility Wind Dir Wind Speed Gust Speed Precip Events Conditions
12:53 AM 73.0 °F - 71.1 °F 93% 29.97 in 9.0 mi South 3.5 mph - N/A   Clear
1:53 AM 73.0 °F - 71.1 °F 93% 29.96 in 7.0 mi South 3.5 mph - N/A   Clear
2:29 AM 71.6 °F - 71.6 °F 100% 29.97 in 6.0 mi South 4.6 mph - N/A   Partly Cloudy
2:42 AM 71.6 °F - 71.6 °F 100% 29.97 in 6.0 mi South 3.5 mph - N/A   Mostly Cloudy
2:53 AM 73.0 °F - 71.1 °F 93% 29.96 in 6.0 mi SSW 4.6 mph - N/A   Overcast
3:53 AM 72.0 °F - 71.1 °F 97% 29.96 in 6.0 mi Calm Calm - N/A   Scattered Clouds
4:53 AM 72.0 °F - 71.1 °F 97% 29.93 in 7.0 mi SSW 5.8 mph - N/A   Clear
5:53 AM 72.0 °F - 70.0 °F 93% 29.94 in 8.0 mi SSW 5.8 mph - N/A   Clear
6:53 AM 73.0 °F - 71.1 °F 93% 29.94 in 7.0 mi SW 5.8 mph - N/A   Clear
7:53 AM 75.0 °F - 72.0 °F 90% 29.94 in 9.0 mi SW 5.8 mph - N/A   Clear
8:53 AM 79.0 °F - 73.0 °F 82% 29.94 in 10.0 mi SW 8.1 mph - N/A   Clear
9:53 AM 84.0 °F 91.2 °F 73.9 °F 72% 29.93 in 10.0 mi WSW 9.2 mph - N/A   Clear
10:53 AM 87.1 °F 95.4 °F 73.9 °F 65% 29.92 in 10.0 mi WSW 9.2 mph 18.4 mph N/A   Clear
11:53 AM 89.1 °F 98.0 °F 73.9 °F 61% 29.91 in 10.0 mi WSW 11.5 mph - N/A   Scattered Clouds
12:53 PM 91.0 °F 97.6 °F 71.1 °F 52% 29.90 in 10.0 mi West 15.0 mph - N/A   Partly Cloudy
1:53 PM 91.0 °F 97.6 °F 71.1 °F 52% 29.88 in 10.0 mi WSW 10.4 mph 21.9 mph N/A   Partly Cloudy
2:53 PM 91.9 °F 98.4 °F 71.1 °F 50% 29.84 in 10.0 mi SW 13.8 mph - N/A   Scattered Clouds
3:53 PM 91.9 °F 97.4 °F 70.0 °F 48% 29.82 in 10.0 mi WSW 13.8 mph - N/A   Partly Cloudy
4:53 PM 90.0 °F 96.4 °F 71.1 °F 54% 29.82 in 10.0 mi SW 12.7 mph - N/A   Mostly Cloudy
5:53 PM 88.0 °F 94.7 °F 72.0 °F 59% 29.79 in 10.0 mi WSW 8.1 mph - N/A   Clear
6:53 PM 88.0 °F 95.6 °F 73.0 °F 61% 29.79 in 10.0 mi SW 8.1 mph - N/A   Scattered Clouds
7:53 PM 86.0 °F 93.8 °F 73.9 °F 67% 29.79 in 10.0 mi SW 10.4 mph - N/A   Clear
8:53 PM 82.9 °F 88.8 °F 73.0 °F 72% 29.81 in 10.0 mi SW 10.4 mph - N/A   Clear
9:53 PM 82.0 °F 87.4 °F 73.0 °F 74% 29.83 in 10.0 mi SW 13.8 mph - N/A   Clear
10:53 PM 79.0 °F - 66.9 °F 66% 29.82 in 10.0 mi SSW 8.1 mph - N/A   Clear
11:53 PM 75.9 °F - 66.9 °F 74% 29.83 in 10.0 mi SW 4.6 mph - N/A   Clear